GFSGBSN_sfc_rhum_090.txt.gz
RH
70 67 66 66 66 67 65 65 70 74 73 73 72 70 68 69 71 76 82 84 82 80 79 78 75 75 58 28 25 11 64 62 28 25 21 20 18 18 20 17 16 15 12 11 10 10 9
68 65 71 74 69 66 64 63 67 71 74 74 76 76 72 71 72 76 83 86 87 87 82 80 77 74 54 42 11 7 6 9 11 17 21 18 15 14 17 16 17 14 12 11 10 10 10
71 72 73 72 72 74 70 72 68 68 68 71 74 76 74 71 74 80 83 86 88 87 84 80 78 58 51 36 10 11 12 12 9 11 13 16 14 17 17 20 15 15 18 15 13 12 12
67 68 70 75 74 74 75 75 71 68 69 70 70 75 77 79 83 86 86 86 86 85 83 81 77 58 51 18 13 12 10 11 10 10 14 12 14 18 20 18 18 18 19 22 15 14 13
69 66 66 69 75 74 75 76 74 70 69 69 69 75 78 82 84 87 87 87 85 82 81 78 67 56 36 22 20 14 13 13 11 10 12 13 14 22 22 26 28 24 28 24 20 15 14
67 68 64 66 69 69 71 73 78 75 73 71 68 70 76 81 85 87 87 86 71 69 60 44 40 49 38 21 9 11 15 18 13 11 11 13 14 16 17 23 33 28 25 22 22 17 14
64 62 64 66 68 66 68 67 71 76 73 71 68 69 72 79 83 86 74 49 30 42 52 42 34 33 20 13 13 12 11 22 12 12 16 13 16 16 13 16 18 20 20 22 20 16 15
63 64 68 66 72 68 63 64 68 76 71 69 70 69 71 77 81 85 69 61 35 40 54 33 29 28 22 16 20 16 11 28 31 33 28 21 19 12 9 12 16 17 20 22 21 18 16
64 70 74 78 67 64 68 69 71 74 72 71 68 68 72 78 82 69 54 45 27 38 56 31 23 22 19 17 21 18 14 14 23 29 27 28 20 12 12 10 14 20 25 24 30 25 18
78 70 65 69 73 63 68 72 71 76 71 72 71 70 74 79 75 50 46 40 34 48 65 21 24 20 18 20 26 16 15 14 17 26 24 25 16 14 17 18 13 22 19 26 33 39 46
68 66 66 66 64 65 70 68 69 70 69 68 72 69 72 72 62 57 51 44 37 67 53 18 21 17 20 23 19 19 14 15 19 25 23 25 20 18 20 18 18 21 20 28 41 44 34
74 73 72 69 66 70 74 69 71 73 72 68 69 70 71 52 54 45 38 44 65 78 45 11 21 24 26 25 20 25 27 21 15 18 18 20 16 18 16 17 17 19 22 28 32 38 55
76 76 71 73 73 70 66 73 73 73 72 69 71 68 66 42 55 57 73 72 79 58 11 10 19 19 24 25 24 20 32 30 22 26 26 18 20 18 19 26 22 22 31 44 61 66 60
74 77 78 70 65 64 64 65 74 77 72 71 76 77 60 43 40 53 78 92 91 30 23 11 17 20 26 17 25 24 28 27 22 19 18 23 27 19 18 23 26 26 34 41 56 72 73
65 64 68 72 74 70 64 64 72 77 74 71 72 55 53 49 50 56 92 93 50 34 24 22 18 21 22 16 23 27 31 28 22 22 30 27 21 11 11 13 20 27 36 26 39 40 57
68 69 68 66 66 65 66 68 69 67 68 68 54 56 56 46 58 78 99 83 43 28 35 41 39 22 22 18 26 26 28 23 37 28 28 30 39 20 12 9 12 20 23 39 37 51 45
66 64 63 63 65 68 76 76 74 72 71 65 55 75 42 45 74 90 94 63 42 28 37 54 34 59 42 54 24 25 40 68 30 31 31 38 35 31 18 16 18 16 18 23 21 25 37
64 66 68 69 67 67 71 76 75 75 76 68 58 92 40 56 95 85 82 48 45 34 36 62 52 41 64 46 38 28 25 36 28 29 36 47 51 53 29 17 15 16 20 20 34 33 33
69 69 70 72 73 74 75 70 75 74 75 64 74 54 50 74 88 66 46 42 37 40 43 45 56 26 32 33 36 27 28 30 31 30 42 38 43 56 38 26 22 25 22 20 22 26 35
70 70 71 71 69 69 70 72 76 75 75 79 93 96 52 84 60 62 54 45 41 31 49 59 52 39 29 28 28 34 31 28 33 32 49 43 39 42 53 62 43 48 37 21 25 39 35
74 76 78 76 75 73 73 73 75 78 78 91 92 91 52 86 73 53 48 44 62 47 31 43 78 57 38 33 29 31 29 31 37 51 41 37 46 37 29 23 23 24 25 31 31 27 36
78 80 85 84 83 81 78 79 79 79 80 96 99 85 49 52 60 55 49 46 40 40 54 62 51 47 36 54 39 38 48 50 52 42 39 41 65 44 44 31 28 29 24 23 26 26 25
81 80 82 84 83 87 82 83 84 83 81 98 72 51 70 63 54 54 61 51 35 33 35 49 70 49 45 40 33 41 49 54 57 50 52 54 60 63 64 39 35 51 35 25 22 23 25
81 81 83 84 84 82 86 86 86 88 85 96 81 57 86 84 69 56 42 33 36 37 43 37 77 77 50 38 42 40 39 40 40 44 43 57 56 63 75 60 67 32 20 33 31 32 32
86 85 84 83 83 83 86 86 89 86 90 98 96 88 80 89 56 51 50 53 41 36 38 38 36 55 54 50 59 57 57 54 48 43 44 44 53 84 78 65 44 34 26 31 39 41 62
88 86 84 82 82 85 85 86 84 83 81 97 97 92 95 96 73 41 43 38 56 60 52 44 70 70 68 93 77 73 67 51 46 42 37 40 47 67 71 69 65 46 59 44 39 60 63
87 91 91 85 83 84 86 85 85 84 82 83 98 92 96 100 71 50 60 56 40 48 63 52 88 85 68 82 83 70 63 39 58 55 60 59 71 80 77 73 51 39 64 73 72 81 68
90 92 92 93 86 83 84 85 84 84 84 89 93 87 98 100 83 52 45 56 54 68 78 82 92 97 99 96 76 63 69 70 41 33 78 73 77 83 72 67 72 55 48 82 74 59 59
92 92 93 94 90 89 85 84 84 84 84 85 94 87 89 99 96 83 68 52 51 54 81 91 69 85 68 72 60 61 71 74 45 55 38 74 54 71 56 54 66 84 68 49 49 56 56

GFSGBSN_sfc_rhum_093.txt.gz
RH
69 69 69 72 72 71 66 66 72 76 76 75 76 72 68 68 69 72 79 84 85 82 81 80 79 78 78 47 38 27 68 67 51 43 32 30 24 24 25 26 25 24 21 17 15 14 15
66 70 74 74 71 69 71 70 73 76 77 78 78 78 75 69 69 70 77 83 85 85 82 80 78 78 72 58 18 14 20 26 27 25 27 26 26 23 23 24 25 22 21 20 17 16 15
66 68 68 71 74 73 71 79 78 76 76 76 78 78 77 70 70 73 77 84 86 84 80 78 77 72 72 53 20 20 19 19 16 14 15 17 24 25 25 28 20 21 27 22 21 21 20
68 69 70 70 74 77 79 78 77 75 76 76 76 77 78 79 80 81 84 86 86 84 79 77 78 77 78 29 29 24 21 19 16 13 14 15 18 25 31 26 26 31 32 34 25 20 18
67 66 67 70 72 75 75 77 77 75 74 76 77 77 79 82 83 84 86 86 84 81 78 79 87 86 70 33 34 26 24 22 17 15 16 10 20 28 30 40 45 41 45 38 30 22 20
69 68 67 64 68 71 72 73 76 76 78 79 77 76 77 80 82 85 86 84 74 74 69 55 56 78 59 32 18 15 17 18 18 18 20 18 22 28 35 44 55 47 40 38 34 25 21
65 67 65 64 65 67 69 72 76 76 78 77 73 73 76 78 80 83 88 78 55 72 65 65 58 51 31 26 18 17 14 17 23 22 25 21 26 29 27 27 28 29 30 32 26 18 20
75 72 67 65 73 76 72 75 74 75 75 72 75 76 75 74 79 81 88 83 62 58 74 44 41 40 38 33 38 28 18 24 40 25 20 22 25 18 17 17 19 20 25 26 20 18 20
70 73 78 77 77 73 78 68 73 75 77 76 76 74 74 79 81 81 76 62 45 54 83 45 36 36 36 29 38 33 20 21 27 43 36 32 30 19 17 17 15 14 20 26 28 28 34
68 73 76 72 71 65 65 66 71 72 74 78 76 75 77 81 81 67 69 49 53 64 97 47 30 24 22 23 30 20 18 20 24 24 33 38 29 28 23 18 16 17 13 15 22 48 62
67 73 72 70 70 70 71 67 74 67 74 78 76 75 76 70 85 68 52 43 52 75 78 21 23 19 18 26 24 24 20 21 27 24 31 34 33 32 31 24 21 23 19 19 41 54 61
66 71 75 72 74 72 71 74 74 74 74 78 76 74 75 72 88 64 49 66 77 88 80 24 27 28 31 29 27 26 28 26 23 26 22 26 21 24 25 23 23 26 30 37 46 52 82
66 67 73 73 72 71 71 68 71 68 73 76 77 76 74 58 80 58 78 88 93 94 26 17 28 28 33 36 33 30 38 42 39 38 39 26 23 19 21 28 29 32 36 62 76 73 74
64 66 68 75 75 71 70 67 70 71 76 76 76 78 78 63 69 52 84 99 99 44 38 29 39 30 32 28 31 28 40 44 35 30 30 36 38 22 18 24 34 33 34 67 71 84 85
62 64 67 69 74 70 66 66 68 70 76 75 76 89 87 71 70 68 94 98 78 46 31 38 44 41 30 26 26 33 31 39 28 27 36 40 34 28 16 16 26 37 41 32 50 48 73
64 65 65 66 63 64 66 69 72 70 72 76 87 86 71 61 70 88 99 85 59 39 35 46 60 47 60 61 54 30 40 41 36 45 35 41 53 34 24 18 23 26 28 46 51 64 60
64 64 64 67 68 67 66 68 75 72 76 71 92 92 62 63 87 94 96 81 50 38 36 44 66 91 72 84 75 52 41 62 64 45 49 63 66 49 31 24 20 25 30 37 32 50 64
62 65 68 68 68 70 70 69 69 73 75 77 92 97 62 69 98 99 91 60 53 44 38 50 71 68 93 77 71 78 91 73 65 46 48 50 65 69 49 34 34 19 20 22 36 38 38
64 67 70 70 71 73 75 76 68 69 72 92 98 84 59 85 98 93 73 58 50 51 44 43 67 71 57 77 77 80 65 47 45 45 50 44 60 70 50 41 48 51 25 22 27 30 36
68 70 70 71 71 71 70 70 74 76 69 92 99 99 80 98 97 90 73 74 61 40 40 36 50 52 64 59 50 53 53 50 47 42 55 48 51 56 67 59 55 48 37 30 49 57 41
73 74 75 76 76 76 75 72 73 76 78 94 98 93 73 98 90 78 69 66 62 60 48 42 62 56 64 77 62 44 39 53 47 58 53 52 57 53 43 37 32 34 31 30 28 55 68
74 79 82 81 82 82 80 77 79 78 78 95 99 98 67 66 60 96 89 68 59 49 61 56 55 50 64 71 64 66 58 68 73 55 57 58 77 66 63 45 40 41 34 30 28 28 30
76 80 82 81 81 81 86 85 83 81 80 99 88 76 85 73 74 78 81 84 57 49 44 41 57 68 74 82 70 71 64 65 69 75 68 68 79 84 82 55 58 67 46 33 31 27 30
79 80 81 81 81 80 84 85 89 85 82 95 90 77 96 86 72 63 53 53 52 49 57 48 64 82 64 65 71 56 54 55 65 64 52 69 73 82 94 76 89 49 30 30 47 67 73
82 82 82 82 83 84 85 85 88 88 85 96 94 91 95 90 61 58 58 61 66 70 61 55 58 72 76 84 86 69 74 70 62 50 50 55 72 95 96 92 64 43 62 79 87 88 75
85 84 84 85 86 85 85 86 87 87 88 97 97 92 94 98 77 50 60 55 74 84 76 65 80 79 86 98 94 84 89 74 58 49 44 51 66 83 91 90 83 70 68 66 61 95 73
88 88 87 89 91 90 85 85 87 86 83 92 98 93 98 100 75 56 70 73 64 71 80 74 88 91 88 98 98 93 86 47 74 80 74 74 81 84 88 94 74 78 74 68 95 96 70
89 89 89 91 92 91 91 85 87 86 84 88 92 90 98 100 81 68 63 71 74 84 96 93 96 97 99 96 95 88 90 74 80 68 71 80 95 95 91 92 86 84 71 93 92 72 73
90 89 89 90 92 93 92 86 86 86 85 82 97 89 90 100 98 91 84 76 78 82 93 94 94 93 90 94 88 86 93 92 97 82 72 91 74 87 76 83 93 86 79 62 66 71 70

GFSGBSN_sfc_rhum_099.txt.gz
RH
65 67 68 68 70 70 70 70 75 80 82 81 80 75 71 70 70 72 76 78 77 72 70 71 74 75 87 74 42 28 59 56 66 48 36 35 31 26 27 26 30 43 40 33 30 29 28
66 66 70 71 71 72 70 70 72 79 81 81 82 81 79 74 73 73 76 78 80 79 75 71 74 75 84 93 24 22 29 24 34 61 48 37 32 24 27 26 30 31 29 28 29 28 27
68 70 69 69 69 69 69 70 71 72 77 80 80 82 82 76 73 73 76 80 80 80 73 71 73 75 82 73 37 41 38 30 23 39 40 26 35 41 36 36 29 28 33 31 31 29 27
66 65 65 68 72 72 69 69 69 70 73 77 78 80 81 81 80 80 82 81 80 78 73 71 71 81 83 46 46 47 45 38 29 27 24 20 19 23 34 33 34 36 42 49 34 30 27
67 67 69 70 71 72 71 70 72 73 73 75 76 80 80 81 82 83 82 81 80 77 72 69 76 86 85 48 49 43 39 30 28 26 22 14 21 26 37 44 48 50 53 48 41 30 30
65 66 66 66 69 72 72 72 76 78 77 75 73 76 79 81 81 82 82 82 72 74 72 63 65 86 68 39 33 30 39 29 27 25 26 22 25 32 46 50 51 48 56 64 50 38 32
62 64 61 62 63 66 68 68 69 72 72 69 71 70 77 78 79 79 88 92 77 76 87 84 70 67 49 35 35 32 29 30 29 23 28 29 31 34 38 41 35 42 48 52 46 32 31
57 58 60 65 64 65 68 68 70 73 71 68 66 69 76 74 76 79 92 96 57 63 90 62 58 60 56 49 56 38 34 34 36 37 28 31 34 27 30 34 36 37 42 45 36 30 31
62 64 62 62 66 65 67 68 69 70 70 72 72 70 75 76 78 86 92 63 48 55 88 65 52 51 44 44 60 48 36 31 34 52 34 42 33 24 25 28 29 30 32 32 32 27 26
58 65 60 61 65 68 69 70 72 70 70 71 70 72 78 81 89 83 64 50 50 63 97 58 53 44 39 39 53 31 27 28 31 34 37 45 27 24 27 25 25 28 22 21 23 27 32
58 62 59 60 66 69 71 72 70 71 71 71 71 69 75 82 89 93 60 57 57 77 57 22 39 30 38 42 29 35 27 32 32 35 40 47 48 44 30 29 24 29 26 26 26 27 34
58 59 61 64 66 67 70 71 73 73 72 70 74 71 75 89 94 88 70 71 84 88 74 36 37 41 44 39 34 32 31 28 29 33 34 36 32 32 42 36 39 33 34 37 43 43 72
57 57 63 63 66 67 69 70 71 71 71 70 73 76 76 74 86 78 81 97 95 91 36 52 50 43 46 44 38 38 40 41 43 45 48 34 28 31 27 34 32 36 44 64 76 88 67
57 60 64 64 65 67 67 66 68 70 69 72 75 79 79 78 89 86 92 89 85 52 56 42 43 47 63 60 52 45 52 49 45 36 42 50 43 32 28 28 34 39 43 65 63 71 53
59 58 64 69 64 65 68 68 67 68 72 74 77 94 96 87 88 91 97 97 85 73 48 55 54 72 69 60 64 65 54 55 44 37 42 47 43 28 24 24 24 36 47 38 51 68 76
67 67 67 66 64 66 68 70 72 69 72 72 98 93 96 80 88 96 99 92 76 48 48 57 78 69 73 64 77 72 77 77 79 67 44 42 55 40 38 25 27 28 30 52 62 68 65
61 63 64 64 65 69 71 72 75 71 74 74 96 96 70 81 90 95 98 88 65 46 51 64 67 77 68 84 92 79 83 76 75 82 80 54 64 48 44 38 32 38 44 47 46 65 57
62 67 70 69 67 69 70 71 74 72 74 81 94 99 60 88 96 97 98 78 61 60 52 55 70 71 90 83 84 81 96 95 66 78 93 67 82 71 46 60 60 36 45 52 65 62 70
71 67 66 69 72 73 72 74 73 71 73 96 96 88 80 91 99 80 86 80 66 63 63 60 63 66 79 88 81 89 82 63 67 64 95 86 87 80 66 70 58 73 64 49 60 57 63
69 65 68 73 76 75 75 76 77 74 76 96 99 97 84 97 97 96 88 82 75 60 66 59 57 54 60 78 73 86 85 78 72 72 71 87 89 89 71 67 59 70 66 67 62 81 77
68 66 69 72 75 78 78 77 76 78 76 97 99 97 88 98 93 95 91 81 76 71 57 67 73 61 62 75 74 79 78 93 70 70 78 86 94 83 65 53 49 53 52 62 50 53 66
65 66 70 75 77 81 81 82 81 79 77 97 99 98 90 90 75 84 72 76 70 81 68 64 80 70 73 95 69 77 72 95 83 63 92 78 94 77 72 61 57 60 51 48 48 44 46
64 66 70 76 76 82 82 83 84 85 82 98 94 94 94 82 85 84 87 69 73 64 66 71 76 83 87 66 65 63 66 71 76 85 76 72 82 85 79 74 64 69 60 52 84 84 83
65 66 70 75 77 80 81 85 86 84 86 95 92 91 96 94 84 74 60 59 63 59 71 64 68 81 66 74 74 76 83 84 85 82 73 73 79 89 92 79 80 62 70 65 79 79 80
65 67 73 76 78 81 86 87 87 85 89 94 97 92 95 99 72 67 69 69 64 65 76 72 63 67 84 88 96 82 77 77 70 69 74 73 80 93 93 96 64 74 73 77 85 98 78
64 68 75 75 82 85 88 87 87 87 84 97 90 94 94 96 86 58 66 67 81 82 80 81 71 89 92 97 98 87 78 76 74 65 64 74 72 81 95 90 91 83 77 74 77 98 81
67 70 76 77 82 85 90 88 89 90 84 94 98 81 93 99 77 71 77 76 70 79 90 87 86 93 92 98 99 98 80 65 73 78 94 92 93 88 94 95 79 77 83 77 83 89 86
66 70 76 78 82 87 90 90 92 93 87 92 99 82 97 100 76 72 61 74 79 88 92 82 87 89 98 92 98 92 92 78 84 81 98 91 93 94 91 96 87 83 79 75 88 91 81
68 71 76 80 85 88 90 90 92 94 88 86 99 90 90 100 98 91 86 76 77 80 92 94 89 98 99 99 92 94 96 98 89 93 97 99 89 92 82 85 90 82 86 78 76 81 84

GFSGBSN_sfc_rhum_105.txt.gz
RH
66 68 68 68 69 67 64 64 65 67 69 70 71 74 75 74 72 71 77 80 77 74 72 70 69 69 64 80 62 27 48 41 54 60 39 30 32 30 30 27 32 41 33 32 28 26 26
68 65 65 68 68 72 70 69 69 70 71 71 72 73 75 75 74 74 75 79 81 78 73 69 68 68 77 86 35 32 33 32 23 48 36 30 26 24 24 22 21 20 24 22 23 26 28
63 64 68 68 70 70 70 71 71 72 74 74 74 75 75 74 73 73 73 78 82 80 74 70 68 64 76 72 39 34 30 31 32 29 43 38 28 24 25 26 24 25 27 24 22 23 25
56 60 64 65 65 66 68 70 71 71 71 72 72 72 74 75 76 77 78 79 82 78 76 71 67 68 76 42 40 46 44 47 42 40 31 24 22 35 34 27 24 33 36 33 27 27 25
58 57 58 59 60 62 64 66 67 69 70 72 71 71 74 78 80 81 83 82 78 76 74 72 74 76 70 46 52 43 45 46 33 38 29 17 24 25 27 31 34 38 36 44 34 29 25
56 57 56 56 58 61 60 61 63 68 69 69 69 69 70 75 78 80 83 80 68 71 65 64 58 78 58 30 38 39 44 46 35 33 27 27 28 32 31 28 30 32 44 39 34 29 31
58 59 60 59 58 60 57 58 63 68 69 69 69 70 70 71 71 76 81 72 58 59 68 83 75 68 56 48 43 42 40 42 34 26 27 30 37 37 31 31 26 33 32 32 37 31 31
56 58 56 57 55 56 63 61 64 67 68 68 70 71 71 71 71 73 83 80 69 92 96 67 64 61 52 47 64 46 36 43 36 38 28 33 48 32 25 34 32 33 34 36 36 31 31
53 55 56 54 56 56 59 61 65 66 69 70 71 71 71 73 72 79 84 76 66 78 99 65 52 66 58 52 60 50 43 36 35 36 36 42 24 25 25 29 37 37 39 38 36 28 21
52 55 54 55 56 61 64 65 66 67 69 70 71 71 72 77 80 88 81 66 72 81 94 52 70 58 52 50 66 38 28 27 36 38 38 35 25 29 32 28 29 33 32 33 35 32 31
51 53 54 54 59 62 65 66 67 68 68 69 70 71 72 76 92 90 75 74 76 87 85 35 54 36 43 44 36 47 35 35 32 41 40 45 46 37 33 28 30 30 31 30 30 28 25
50 54 56 57 64 64 64 66 67 68 68 68 71 72 72 89 94 83 75 82 92 92 80 60 59 53 53 46 40 34 35 27 27 31 30 36 27 35 35 28 25 24 28 31 34 32 45
53 54 55 62 65 66 64 64 67 69 70 69 72 74 76 86 88 84 84 91 84 86 48 62 82 95 69 60 51 40 38 37 32 40 38 28 28 27 27 33 27 31 39 49 64 54 47
56 60 59 59 66 65 63 65 68 71 71 71 74 78 83 78 85 82 90 94 89 92 64 45 69 92 88 67 60 59 38 44 73 51 27 27 26 22 25 30 34 35 37 41 47 60 44
57 64 65 66 64 63 65 68 70 72 71 72 80 88 86 82 85 86 91 91 79 92 71 59 47 81 76 75 68 73 80 83 78 80 47 41 34 23 26 21 26 37 40 35 44 48 51
56 62 60 61 64 64 66 68 71 72 70 75 94 90 80 86 87 89 93 80 72 68 52 52 60 59 80 67 75 90 88 93 90 65 74 53 45 36 33 23 25 31 32 43 48 53 49
57 57 60 67 68 69 68 69 72 72 73 76 90 85 71 87 87 90 95 79 68 50 49 56 62 71 72 74 74 91 83 74 68 77 67 73 55 44 35 35 32 31 31 38 39 46 38
57 61 62 67 64 67 71 72 73 73 74 79 90 91 67 85 94 92 88 68 68 54 54 58 59 69 68 78 74 70 80 75 66 76 88 82 79 65 45 37 46 33 35 32 39 48 47
60 64 56 67 65 70 73 75 75 74 73 95 96 82 74 88 95 88 69 72 74 72 66 70 65 60 56 71 76 74 72 68 76 74 86 76 84 73 59 63 47 57 53 41 48 47 41
60 68 59 67 64 68 72 75 76 75 79 95 96 97 75 93 87 88 87 74 78 66 66 66 69 65 75 66 70 75 75 70 74 74 84 72 80 82 59 69 71 63 55 55 52 54 46
60 67 60 67 65 68 73 77 81 79 78 93 95 93 80 94 90 79 80 82 84 81 63 63 66 66 79 85 73 74 75 66 61 77 91 87 92 82 74 75 75 64 56 55 52 48 50
61 67 60 59 65 68 73 77 80 77 78 94 99 95 84 88 80 82 72 68 85 66 64 77 64 64 69 84 87 86 71 69 74 71 79 94 92 92 82 71 66 56 51 60 59 54 56
65 60 61 58 64 68 73 76 83 82 78 96 90 84 84 76 76 80 78 72 68 62 54 57 66 69 71 70 78 75 70 66 62 71 83 97 88 81 66 70 60 52 52 54 63 76 75
66 60 64 62 64 67 74 81 83 86 80 94 91 83 95 85 76 68 61 62 64 60 66 56 60 72 60 74 78 72 82 75 75 74 68 92 87 78 73 69 70 78 72 59 67 75 77
66 64 62 65 63 67 75 79 82 83 87 98 96 93 91 94 68 66 70 69 66 65 67 63 59 60 79 92 84 86 78 78 75 77 75 78 81 82 78 74 57 66 80 80 81 85 81
64 66 62 69 63 67 76 79 83 83 83 96 95 95 100 95 80 58 64 63 71 74 75 69 68 76 88 94 94 90 76 72 67 80 73 85 82 76 82 71 73 77 84 72 73 83 78
65 64 66 68 64 67 74 81 81 83 83 95 98 90 99 100 79 72 74 70 65 75 81 77 78 82 82 90 90 90 80 64 67 70 87 84 94 91 73 72 60 83 78 75 82 88 92
64 63 68 67 65 65 71 79 79 82 86 95 98 86 97 100 85 72 64 69 69 84 81 76 82 89 90 89 90 89 90 72 80 82 92 83 87 86 79 79 72 84 77 74 95 90 84
65 66 68 70 66 65 72 79 78 81 85 88 100 92 93 99 95 88 84 71 69 66 78 78 83 92 91 90 93 97 91 90 87 72 84 95 95 97 80 84 90 86 90 80 76 81 82